Location: Feydey
(46.3431°N, 7.0106°E)
Time: 09:19:18
(UTC+00:00)

Tsikada Rocket - Pass Details

Date: 20 June 2021
Orbit: 959 x 1008 km, 82.9° (Epoch: 04 August)

Event Time Altitude Azimuth Distance (km) Brightness Sun altitude
Exits shadow 23:34:09 33° 206° (SSW) 1,578 4.6 -20.2°
Maximum altitude 23:37:05 69° 281° (W) 1,031 4.1 -20.2°
Drops below altitude 10° 23:43:15 10° 4° (N) 2,704 7.5 -20.2°
Sets 23:45:47 0° 7° (N) 3,653 8.6 -20.2°
